Location: Limoges
(45.8500°N, 1.2500°E)
Time: 03:03:57
(UTC+02:00)

ISS - Pass Details

Date: 02 October 2021
Orbit: 417 x 423 km, 51.6° (Epoch: 21 October)

Event Time Altitude Azimuth Distance (km) Brightness Sun altitude
Rises 21:04:07 0° 297° (WNW) 2,366 1.6 -16.6°
Reaches altitude 10° 21:06:14 10° 295° (WNW) 1,500 0.3 -17.0°
Maximum altitude 21:09:35 70° 212° (SSW) 449 -3.7 -17.6°
Enters shadow 21:10:22 47° 145° (SE) 562 -3.5 -17.7°
